Location: Les Jeannots
(43.2262°N, 5.5774°E)
Time: 08:36:45
(UTC+00:00)

Cosmos 2360 Rocket - Pass Details

Date: 05 July 2020
Orbit: 832 x 847 km, 71.0° (Epoch: 04 August)

Event Time Altitude Azimuth Distance (km) Brightness Sun altitude
Rises 20:29:52 0° 206° (SSW) 3,373 5.1 -10.6°
Reaches altitude 10° 20:32:17 10° 207° (SSW) 2,444 4.4 -10.9°
Maximum altitude 20:37:55 81° 295° (WNW) 856 2.3 -11.6°
Drops below altitude 10° 20:43:36 10° 23° (NNE) 2,470 5.0 -12.3°
Sets 20:46:04 0° 25° (NNE) 3,411 5.7 -12.6°
